Regional Weather Roundup
Issued by NWS State College, PA

Home | Current Version | Previous Version | Text Only | Print | Product List | Glossary On
Versions: 1 2 3 4 5 6 7 8 9 10 11 12 13 14 15 16 17 18 19 20 21 22 23 24 25 26 27 28 29 30 31 32 33 34 35 36 37 38 39 40 41 42 43 44 45 46 47 48 49 50
000
ASUS41 KCTP 280010
RWRCTP

REGIONAL WEATHER ROUNDUP
NATIONAL WEATHER SERVICE STATE COLLEGE PA
800 PM EDT FRI MAY 27 2016

Note: "fair" indicates few or no clouds below 12,000 feet with no
significant weather and/or obstructions to visibility.

* = STATION THAT DOES NOT REPORT PRECIPITATION /E.G. RAIN...SNOW...ETC/
    THUNDER OR FOG.

PAZ002>004-007>009-013>016-020>023-029>032-280100-
WESTERN PENNSYLVANIA

CITY           SKY/WX    TMP DP  RH WIND       PRES   REMARKS
ERIE           MOCLDY    78  62  57 CALM      30.00S
MEADVILLE      PTCLDY    78  60  53 CALM      30.03S
FRANKLIN*      PTCLDY    79  61  53 SW3       30.06S
NEW CASTLE     FAIR      82  66  58 CALM      30.03R
BEAVER COUNTY  CLEAR     81  64  57 CALM      30.03R
BUTLER*        CLOUDY    81  66  61 CALM      30.06R
PITTSBURGH INT CLOUDY    84  60  44 SW5       30.03R
PITTSBURGH     PTCLDY    82  60  47 S6        30.03R
INDIANA*       CLEAR     81  66  61 CALM      30.08S
LATROBE        MOCLDY    81  64  57 S5        30.05R
WASHINGTON CO* CLEAR     81  64  57 CALM      30.05R
$$

PAZ004>006-010>012-017>019-024>028-033>037-041-042-045-046-049>053-280100-
CENTRAL PENNSYLVANIA

CITY           SKY/WX    TMP DP  RH WIND       PRES   REMARKS
BRADFORD       PTCLDY    77  59  53 SW3       30.08R
DUBOIS         CLEAR     75  61  61 SW3       30.06R
CLEARFIELD     CLEAR     81  59  47 W5        30.06R
JOHNSTOWN      CLOUDY    78  57  48 W3        30.10R
ALTOONA        CLOUDY    76  64  66 S9        30.08R
STATE COLLEGE  PTCLDY    77  64  65 SW6       30.05R
WILLIAMSPORT   PTCLDY    77  64  64 E5        29.99R
SELINSGROVE    CLEAR     84  62  47 SW6       30.01R
FT INDIANTOWN  CLOUDY    84  67  57 SW14      30.02R
CAPITAL CITY   LGT RAIN  75  67  76 SW8       30.02R
HARRISBURG     LGT RAIN  77  69  76 SW7       30.01R
YORK           CLOUDY    80  66  62 W10       30.05R
$$

PAZ038>040-043-044-047-048-054-055-060>062-067>071-280100-
EASTERN PENNSYLVANIA

CITY           SKY/WX    TMP DP  RH WIND       PRES   REMARKS
SCRANTON       MOCLDY    83  64  52 W7        30.02R
MOUNT POCONO   PTCLDY    76  63  64 W5        30.08R
ALLENTOWN      CLEAR     86  68  54 S10       30.01R
QUAKERTOWN*    CLEAR     82  68  61 SW7       30.04R
READING        CLEAR     83  67  58 SW9       30.01R
LANCASTER      PTCLDY    81  68  64 S9        30.03R
COATESVILLE    CLEAR     81  66  61 CALM      30.07R
POTTSTOWN      CLEAR     83  66  56 SW8       30.04S
BLUE BELL      CLEAR     81  64  57 SW8       30.03R
DOYLESTOWN     CLEAR     82  64  54 S6        30.02R
WILLOW GROVE   NOT AVBL
NORTH PHILA    PTCLDY    86  66  51 SW8       30.04R
PHILADELPHIA   CLOUDY    83  66  56 S10       30.03R
$$




USA.gov is the U.S. government's official web portal to all federal, state and local government web resources and services.